Date,TemperatureHighF,TemperatureAvgF,TemperatureLowF,DewpointHighF,DewpointAvgF,DewpointLowF,HumidityHigh,HumidityAvg,HumidityLow,PressureMaxIn,PressureMinIn,WindSpeedMaxMPH,WindSpeedAvgMPH,GustSpeedMaxMPH,PrecipitationSumIn
2013-2-1,33,30,27,21,15,9,65,52,43,0.00,40.00,34,24,45,0.00
2013-2-2,30,27,24,23,14,10,87,57,45,0.00,40.00,25,17,34,0.00
2013-2-3,30,26,25,22,19,16,87,76,59,0.00,40.00,13,9,18,0.00
2013-2-4,31,30,27,14,12,11,51,47,44,0.00,40.00,22,19,29,0.00
2013-2-5,30,28,27,26,22,14,88,77,50,0.00,40.00,18,10,22,0.00
2013-2-6,38,32,29,28,23,5,89,72,37,0.00,40.00,25,12,29,0.00
2013-2-7,33,28,25,23,10,3,67,45,32,0.00,40.00,22,12,27,0.00
2013-2-8,36,33,31,33,30,22,100,88,64,0.00,40.00,34,27,43,0.00
2013-2-11,42,40,38,42,40,37,100,100,99,0.00,40.00,13,5,20,0.00
2013-2-12,40,38,36,38,32,28,100,78,66,0.00,40.00,22,15,27,0.00
2013-2-13,39,36,35,30,28,26,78,72,59,0.00,40.00,13,6,18,0.00
2013-2-14,39,37,37,34,32,28,89,79,64,0.00,40.00,11,9,16,0.00
2013-2-15,41,39,36,38,36,34,95,88,79,0.00,40.00,11,8,18,0.00
2013-2-16,40,36,32,37,29,22,95,76,54,0.00,40.00,22,13,29,0.00
2013-2-17,31,27,21,25,13,9,78,54,39,0.00,40.00,34,28,47,0.00
2013-2-18,34,26,20,18,11,8,62,53,43,0.00,40.00,34,24,45,0.00
2013-2-19,44,38,33,42,32,20,98,78,55,0.00,40.00,18,11,25,0.00
2013-2-20,39,33,28,37,21,14,98,61,49,0.00,40.00,29,23,36,0.00
2013-2-21,33,29,27,19,17,15,70,59,53,0.00,40.00,27,25,36,0.00
2013-2-22,36,31,27,29,23,18,76,70,61,0.00,40.00,27,13,31,0.00
2013-2-23,38,36,35,36,34,29,97,90,77,0.00,40.00,22,14,29,0.00
2013-2-24,39,37,35,36,34,28,96,90,70,0.00,40.00,18,13,22,0.00
2013-2-25,39,38,37,33,32,29,86,79,69,0.00,40.00,11,6,13,0.00
2013-2-26,38,37,35,35,33,31,94,87,77,0.00,40.00,27,10,34,0.00
2013-2-27,41,39,37,41,39,35,100,97,93,0.00,40.00,34,24,45,0.00
2013-2-28,40,38,36,39,36,35,97,95,93,0.00,40.00,11,5,13,0.00